Retour au catalogue

THOR ABLESTAR DEB

ActifLEO
NORAD 13513·DEBRIS·🇺🇸 United States

Lancé Jun 29, 1961 depuis Cape Canaveral Space Force Station

Loading…

Prochains Passages (prochaines 24 heures)

TLE

FraisSource: Space-Track

Époque: Sep 14, 2026, 15:42 UTC

1 13513U 61015KW  26257.65431219  .00000602  00000-0  53776-3 0  9998
2 13513  65.6788 324.7816 0094607 177.8845 343.8055 13.89858075331595

Suivez THOR ABLESTAR DEB en temps réel avec AllMySat

Download on the App Store